DW9022 Weather Reports


Display with metric or nautical units.
time (UTC)temp
F
wind
direction
speed
MPH
gust
MPH
rain 1hr
in
rain 24hr
in
rain mn
in
humidity
%
barometer
mb
20260906124607 72 2 1.0 5.0 0.00 0.00 0.00 85 1017.1
20260906123046 72 13 1.0 4.0 0.00 0.00 0.00 85 1016.8
20260906121601 71 291 0.0 3.0 0.00 0.00 0.00 86 1016.5
20260906120044 71 11 0.0 4.0 0.00 0.00 0.00 85 1016.4
20260906114542 71 354 0.0 2.0 0.00 0.00 0.00 86 1016.1
20260906113049 71 56 0.0 3.0 0.00 0.00 0.00 86 1015.7
20260906111552 71 350 1.0 3.0 0.00 0.00 0.00 86 1015.6
20260906110058 71 350 0.0 2.0 0.00 0.00 0.00 86 1015.7
20260906104600 71 350 0.0 2.0 0.00 0.00 0.00 86 1015.6
20260906103043 71 21 0.0 3.0 0.00 0.00 0.00 86 1015.5
20260906101547 70 100 0.0 4.0 0.00 0.00 0.00 85 1015.0
20260906100044 70 357 2.0 5.0 0.00 0.00 0.00 85 1015.3
20260906094552 70 43 2.0 4.0 0.00 0.00 0.00 85 1015.2
20260906093042 70 318 1.0 6.0 0.00 0.00 0.00 85 1015.0
20260906091541 70 50 2.0 7.0 0.00 0.00 0.00 84 1015.2
20260906090036 70 311 2.0 5.0 0.00 0.00 0.00 84 1015.2
20260906084544 70 358 2.0 6.0 0.00 0.00 0.00 83 1015.0
20260906083038 70 350 4.0 8.0 0.00 0.00 0.00 83 1015.1
20260906081538 70 21 2.0 5.0 0.00 0.00 0.00 83 1015.1
20260906080046 71 13 3.0 8.0 0.00 0.00 0.00 82 1015.0
20260906074536 71 340 3.0 8.0 0.00 0.00 0.00 82 1015.1
20260906073008 71 108 5.0 12.0 0.00 0.00 0.00 81 1015.3
20260906071508 72 1 5.0 11.0 0.00 0.00 0.00 81 1015.3
20260906070042 73 76 3.0 9.0 0.00 0.00 0.00 80 1015.4
20260906064546 73 54 2.0 7.0 0.00 0.00 0.00 80 1015.5
20260906063053 74 19 3.0 7.0 0.00 0.00 0.00 79 1015.5
20260906061618 74 77 2.0 6.0 0.00 0.00 0.00 78 1015.3
20260906061502 74 83 2.0 6.0 0.00 0.00 0.00 78 1015.3
20260906060050 75 47 3.0 9.0 0.00 0.00 0.00 78 1015.2
20260906054601 75 75 2.0 5.0 0.00 0.00 0.00 78 1015.0
20260906053058 76 10 2.0 5.0 0.00 0.00 0.00 78 1014.9
20260906051607 76 36 2.0 5.0 0.00 0.00 0.00 77 1014.7
20260906050100 77 79 2.0 5.0 0.00 0.00 0.00 77 1014.5
20260906044529 77 36 2.0 6.0 0.00 0.00 0.00 76 1014.5
20260906043039 77 350 4.0 10.0 0.00 0.00 0.00 77 1014.3
20260906041531 78 38 2.0 7.0 0.00 0.00 0.00 76 1014.2
20260906040033 78 13 2.0 8.0 0.00 0.00 0.00 76 1014.1
20260906034535 79 326 4.0 8.0 0.00 0.00 0.00 75 1013.9
20260906033029 80 356 3.0 10.0 0.00 0.00 0.00 74 1014.2
20260906031523 80 106 5.0 12.0 0.00 0.00 0.00 74 1014.0
20260906030003 81 38 4.0 14.0 0.00 0.00 0.00 74 1013.8
20260906024505 82 9 4.0 9.0 0.00 0.00 0.00 74 1013.7
20260906023109 83 27 4.0 8.0 0.00 0.00 0.00 74 1013.4
20260906021503 83 335 3.0 6.0 0.00 0.00 0.00 73 1013.1
20260906020002 84 340 3.0 9.0 0.00 0.00 0.00 73 1012.9
20260906014503 84 35 2.0 5.0 0.00 0.00 0.00 73 1012.6
20260906013043 85 18 0.0 3.0 0.00 0.00 0.00 72 1012.4
20260906011517 85 356 0.0 2.0 0.00 0.00 0.00 71 1012.4
20260906010011 86 6 1.0 3.0 0.00 0.00 0.00 70 1012.2
20260906004504 87 11 1.0 2.0 0.00 0.00 0.00 67 1012.0
20260906003013 88 5 0.0 2.0 0.00 0.00 0.00 66 1011.8
20260906001536 88 18 1.0 4.0 0.00 0.00 0.00 64 1011.9
20260906000023 89 354 1.0 5.0 0.00 0.00 0.00 63 1012.0
20260905234526 90 14 2.0 5.0 0.00 0.00 0.00 61 1011.9
20260905233029 90 13 1.0 7.0 0.00 0.00 0.00 61 1011.9
20260905231537 90 21 3.0 6.0 0.00 0.00 0.00 60 1012.0
20260905230037 91 299 3.0 10.0 0.00 0.00 0.00 57 1011.9
20260905224542 92 20 2.0 9.0 0.00 0.00 0.00 55 1011.7
20260905223032 92 34 1.0 5.0 0.00 0.00 0.00 55 1011.7
20260905221528 92 4 3.0 8.0 0.00 0.00 0.00 54 1011.7
20260905220022 93 307 2.0 8.0 0.00 0.00 0.00 54 1011.7
20260905214522 93 354 3.0 6.0 0.00 0.00 0.00 53 1011.7
20260905213030 93 306 3.0 7.0 0.00 0.00 0.00 52 1011.7
20260905211530 94 350 1.0 8.0 0.00 0.00 0.00 52 1011.8
20260905210034 94 304 2.0 8.0 0.00 0.00 0.00 50 1011.8
20260905204515 93 345 2.0 9.0 0.00 0.00 0.00 52 1012.0
20260905203025 94 232 1.0 9.0 0.00 0.00 0.00 50 1012.0
20260905201508 94 67 1.0 7.0 0.00 0.00 0.00 49 1012.2
20260905200104 95 324 3.0 9.0 0.00 0.00 0.00 48 1012.2
20260905194502 97 48 5.0 9.0 0.00 0.00 0.00 44 1012.1
20260905193058 99 100 1.0 3.0 0.00 0.00 0.00 43 1012.3
20260905191549 99 277 1.0 3.0 0.00 0.00 0.00 43 1012.4
20260905190057 98 276 1.0 3.0 0.00 0.00 0.00 44 1012.5
20260905184551 97 196 0.0 9.0 0.00 0.00 0.00 45 1012.7
20260905183054 99 2 3.0 8.0 0.00 0.00 0.00 42 1012.9
20260905181549 98 340 1.0 4.0 0.00 0.00 0.00 45 1012.9
20260905180051 97 20 1.0 5.0 0.00 0.00 0.00 45 1013.1
20260905174527 97 274 1.0 5.0 0.00 0.00 0.00 46 1013.2
20260905173022 96 269 0.0 5.0 0.00 0.00 0.00 46 1013.1
20260905171519 96 329 1.0 6.0 0.00 0.00 0.00 46 1013.3
20260905170020 96 270 1.0 7.0 0.00 0.00 0.00 47 1013.5
20260905164508 96 257 1.0 5.0 0.00 0.00 0.00 48 1013.6
20260905163006 95 215 0.0 4.0 0.00 0.00 0.00 49 1013.6
20260905161504 95 292 0.0 4.0 0.00 0.00 0.00 48 1013.5
20260905160044 95 345 0.0 4.0 0.00 0.00 0.00 49 1013.7
20260905154548 96 281 0.0 3.0 0.00 0.00 0.00 49 1013.7
20260905153047 95 217 0.0 2.0 0.00 0.00 0.00 49 1013.6
20260905151539 93 187 0.0 2.0 0.00 0.00 0.00 53 1013.5
20260905150014 91 231 0.0 2.0 0.00 0.00 0.00 54 1013.4
20260905144516 89 190 0.0 2.0 0.00 0.00 0.00 60 1013.3
20260905143102 86 190 0.0 1.0 0.00 0.00 0.00 68 1013.3
20260905141557 86 190 0.0 0.0 0.00 0.00 0.00 65 1013.5
20260905140103 85 190 0.0 0.0 0.00 0.00 0.00 66 1013.5
20260905134549 85 190 0.0 1.0 0.00 0.00 0.00 70 1013.5
20260905133038 82 190 0.0 1.0 0.00 0.00 0.00 74 1013.5
20260905131557 81 190 0.0 1.0 0.00 0.00 0.00 78 1013.4
20260905130028 79 190 0.0 0.0 0.00 0.00 0.00 80 1013.5